Flag for Romania Weather past 2 weeks in Bucharest, Romania

Now
36 °F

Fog.


Feels Like: 36 °F
Forecast: 29 / 40 °F
Wind: 2 mph from Southeast

Location: Bucharest / Imh

Current Time: Feb 2, 2015 at 4:50:56 AM

Latest Report: Feb 2, 2015 at 4:00 AM


Visibility: 0 mi

Pressure: 29.42 "Hg

Humidity: 100%

Dew point: 36 °F

Location of BucharestLocation

Historic Weather in Bucharest — Graph

°F

Bucharest temperature yesterday

Maximum temperature yesterday: 45 °F (at 12:30 AM)
Minimum temperature yesterday: 36 °F (at 9:00 AM)
Average temperature yesterday: 41 °F

Past Weeks' High & Low Weather Summary

 TemperatureHumidityPressure
High55 °F (Jan 31, 3:30 AM)100% (Jan 18, 4:30 AM)30.21 "Hg (Jan 18, 4:30 AM)
Low25 °F (Jan 18, 3:00 AM)30% (Jan 31, 2:00 PM)29.03 "Hg (Jan 31, 6:00 AM)
Average37 °F94%29.84 "Hg
* Reported Jan 18 3:00 AM — Feb 2 3:30 AM, Bucharest, Weather by CustomWeather, © 2014

Note: Actual official high and low records may vary slightly from our data, if they occured in-between our weather recording intervals... More about our weather records

Advertising

Bucharest weather history for previous 24 hours

 ConditionsComfort  
Time TempWeatherWind HumidityBarometerVisibility
3:30 AM
Feb 2
36 °FFog.2 mph93%29.42 "Hg0 mi
3:00 AM34 °FClear.5 mph100%29.42 "Hg10 mi
2:30 AM36 °FChilly.No wind93%29.42 "HgN/A
2:00 AM36 °FClear.2 mph100%29.42 "Hg10 mi
1:30 AM37 °FClear.No wind93%29.42 "Hg10 mi
1:00 AM37 °FClear.2 mph100%29.42 "Hg10 mi
12:30 AM37 °FClear.2 mph100%29.42 "Hg10 mi
12:00 AM39 °FClear.2 mph93%29.42 "Hg10 mi
11:30 PM
Feb 1
39 °FPassing clouds.5 mph100%29.42 "HgN/A
11:00 PM41 °FPassing clouds.5 mph93%29.42 "HgN/A
10:30 PM41 °FPassing clouds.7 mph93%29.42 "HgN/A
10:00 PM41 °FPassing clouds.7 mph93%29.39 "HgN/A
9:30 PM41 °FMostly cloudy.7 mph93%29.39 "HgN/A
9:00 PM41 °FMostly cloudy.5 mph100%29.36 "HgN/A
8:30 PM41 °FMostly cloudy.7 mph100%29.36 "HgN/A
8:00 PM41 °FPartly cloudy.5 mph100%29.33 "HgN/A
7:30 PM41 °FPartly cloudy.2 mph100%29.33 "HgN/A
7:00 PM41 °FLow clouds.2 mph100%29.30 "HgN/A
6:30 PM41 °FLow clouds.5 mph100%29.30 "HgN/A
6:00 PM41 °FLow clouds.5 mph93%29.30 "Hg4 mi
5:30 PM41 °FDrizzle. Fog.7 mph93%29.27 "Hg3 mi
5:00 PM41 °FMore clouds than sun.5 mph93%29.27 "Hg4 mi
4:30 PM41 °FDrizzle. Fog.9 mph93%29.24 "Hg2 mi
4:00 PM41 °FFog.12 mph100%29.21 "Hg3 mi
3:30 PM41 °FMore clouds than sun.12 mph100%29.21 "HgN/A
3:00 PM41 °FLight rain. Broken clouds.9 mph93%29.18 "HgN/A
2:30 PM41 °FLight rain. Mostly cloudy.9 mph93%29.21 "HgN/A
2:00 PM41 °FLight rain. Mostly cloudy.7 mph93%29.21 "HgN/A
1:30 PM41 °FLight rain. Broken clouds.12 mph93%29.21 "HgN/A
1:00 PM39 °FLight rain. Mostly cloudy.12 mph100%29.21 "HgN/A
12:30 PM39 °FLight rain. Mostly cloudy.12 mph93%29.21 "HgN/A
12:00 PM39 °FLight rain. Broken clouds.9 mph93%29.24 "HgN/A
11:30 AM37 °FLight rain. Broken clouds.7 mph100%29.27 "HgN/A
11:00 AM36 °FLight rain. Broken clouds.9 mph100%29.24 "HgN/A
10:30 AM36 °FLight rain. Broken clouds.7 mph93%29.27 "Hg5 mi
10:00 AM36 °FLight rain. Partly sunny.7 mph93%29.27 "Hg5 mi
9:30 AM36 °FLight rain. Broken clouds.9 mph93%29.27 "Hg5 mi
9:00 AM36 °FLight rain. Partly sunny.9 mph100%29.30 "Hg5 mi
8:30 AM37 °FLight rain. Partly sunny.9 mph93%29.30 "HgN/A
8:00 AM37 °FLight rain. Broken clouds.9 mph100%29.30 "Hg5 mi
7:30 AM37 °FLight rain. Partly cloudy.12 mph100%29.30 "Hg5 mi
7:00 AM39 °FSprinkles. Passing clouds.12 mph100%29.33 "Hg6 mi
6:30 AM41 °FSprinkles. Partly cloudy.7 mph93%29.33 "Hg5 mi
6:00 AM41 °FSprinkles. Partly cloudy.9 mph93%29.33 "Hg6 mi
5:30 AM41 °FLight rain. Passing clouds.9 mph100%29.33 "HgN/A
4:30 AM43 °FPassing clouds.7 mph93%29.36 "HgN/A
4:00 AM43 °FLight rain. Passing clouds.7 mph100%29.36 "HgN/A
Weather by CustomWeather, © 2014

See weather overviewHow to use our weather pages